CAPE
7 4 0 6 0 0 0 0 0 0 0 0 0 0 0 0 0 0 0 0 0 0 0 0 0 0 0 1 0 0 0 0 0 0 0 0 0 0 2 13 4 0 0 3
2 5 7 16 1 0 0 1 0 0 0 0 0 0 0 0 0 0 0 0 0 0 0 0 0 8 15 38 10 0 0 0 0 0 0 0 0 1 1 0 4 8 5 12
0 0 24 20 16 4 2 2 3 9 0 0 0 0 0 0 0 0 0 0 0 0 0 0 0 0 24 44 68 35 0 0 0 0 0 1 6 9 15 13 0 3 15 17
8 11 18 36 20 12 8 0 0 0 0 1 0 0 0 0 0 0 0 0 0 0 0 0 0 0 5 60 79 91 60 0 0 0 0 2 2 5 0 0 0 1 20 23
0 6 22 15 7 16 2 0 0 0 0 0 0 0 0 0 0 0 0 0 0 0 0 0 0 0 0 6 32 72 85 65 26 0 0 2 3 4 2 5 8 8 21 27
0 0 24 2 18 41 0 0 0 0 0 0 0 0 0 0 0 0 0 0 0 0 0 0 0 0 0 1 9 25 46 71 92 61 41 28 38 25 36 28 0 0 0 1
0 0 0 3 3 0 0 0 0 0 0 0 0 0 0 0 0 0 0 0 0 0 0 0 0 0 0 0 0 4 7 18 59 86 60 61 66 69 67 79 0 0 0 0
4 1 0 0 0 0 0 0 0 0 0 0 0 0 0 0 0 0 0 0 0 0 0 0 0 0 0 0 0 0 0 1 8 29 65 75 73 97 104 41 0 0 0 0
2 3 0 0 0 0 1 2 0 0 0 0 0 0 0 0 0 0 0 0 0 0 0 0 0 0 0 0 0 0 0 0 0 0 21 39 57 92 111 55 0 0 0 0
0 0 0 0 0 0 0 0 0 0 0 0 0 0 0 0 0 0 0 0 0 0 0 0 0 0 0 0 0 0 0 0 0 0 0 0 4 6 12 6 0 0 0 0
0 0 0 0 0 0 0 0 0 0 0 0 0 0 0 0 0 0 0 0 0 0 0 0 0 0 0 0 0 0 0 0 0 0 0 0 0 0 1 0 0 0 0 0
0 0 0 0 0 0 0 0 0 0 0 0 0 0 0 0 0 0 0 0 0 0 0 0 0 0 0 0 0 0 0 0 0 0 0 0 1 0 0 0 0 0 0 0
0 0 0 0 0 0 0 0 0 0 0 0 0 0 0 0 0 0 0 0 0 0 0 0 0 0 0 0 0 0 0 0 0 0 0 0 0 0 0 0 0 0 0 0
0 0 0 0 0 0 0 0 0 0 0 0 0 0 0 0 0 0 0 0 0 0 0 0 0 0 0 0 0 0 0 0 0 0 0 0 0 0 0 0 0 0 0 0
0 0 0 0 0 0 0 0 0 0 0 0 0 0 0 0 0 0 0 0 0 0 0 0 0 0 0 0 0 0 0 0 0 0 0 0 0 0 0 0 0 0 0 0
0 0 0 0 0 0 0 0 0 0 0 0 0 0 0 0 0 0 0 0 0 0 0 0 0 0 0 0 0 0 0 0 0 0 0 0 0 0 0 0 0 0 0 0
0 0 0 0 0 0 0 0 0 0 0 0 0 0 0 0 0 0 0 0 0 0 0 0 0 0 0 0 0 0 0 0 0 0 0 0 0 0 0 0 0 0 0 0
0 0 0 0 0 0 0 0 0 0 0 0 0 0 0 0 0 0 0 0 0 0 0 0 0 0 0 0 0 0 0 0 0 0 0 0 0 0 0 0 0 0 0 0
0 0 0 0 0 0 0 0 0 0 0 0 0 0 0 0 0 0 0 0 0 0 0 0 0 0 0 0 0 0 0 0 0 0 0 0 0 0 0 0 0 0 0 0
0 0 0 0 0 0 0 0 0 0 0 0 0 0 0 0 0 0 0 0 0 0 0 0 0 0 0 0 0 0 0 0 0 0 0 0 0 0 0 0 0 0 0 0
0 0 0 0 0 0 0 0 0 0 0 0 0 0 0 0 0 0 0 0 0 0 0 0 0 0 0 0 0 0 0 0 0 0 0 0 0 0 0 0 0 0 0 0
0 0 0 0 0 0 0 0 0 0 0 0 0 0 0 0 0 0 0 0 0 0 0 0 0 0 0 0 0 0 0 0 0 0 0 0 0 0 0 0 0 0 0 0
0 0 0 0 0 0 0 0 0 0 0 0 0 0 0 0 0 0 0 0 0 0 0 0 0 0 0 0 0 0 0 0 0 0 0 0 0 0 0 0 0 0 0 0
0 0 0 0 0 0 0 0 0 0 0 0 0 0 0 0 0 0 0 0 0 0 0 0 0 0 0 0 0 0 0 0 0 0 0 0 0 0 0 0 0 0 0 0
0 0 0 0 0 0 0 0 0 0 0 0 0 0 0 0 0 0 0 0 0 0 0 0 0 0 0 0 0 0 0 0 0 0 0 0 0 0 0 0 0 0 0 0
0 0 0 0 0 0 0 0 0 0 0 0 0 0 0 0 0 0 0 0 0 0 0 0 0 0 0 0 0 0 0 0 0 0 0 0 0 0 0 0 0 0 0 0
CIN
-5 -1 0 -1 0 0 0 0 0 0 0 0 0 0 0 0 0 0 0 0 0 0 0 0 0 0 0 -1 0 0 0 0 0 0 0 0 0 0 0 0 -3 0 -12 -33
0 0 -2 -1 -1 -11 -3 -1 -1 -1 0 0 0 0 0 0 0 0 0 0 0 0 0 0 0 -128 -215 -184 -94 0 0 0 0 0 0 0 0 0 0 0 -17 -26 -32 -33
0 0 -2 -2 -1 -5 -16 -5 -1 -3 0 0 0 0 0 0 0 0 0 0 0 0 0 0 0 0 -188 -184 -184 -223 0 0 0 0 0 0 0 -1 0 0 -1 -27 -24 -22
-1 -2 -1 0 0 -1 0 0 0 0 0 -1 0 0 0 0 0 0 0 0 0 0 0 0 0 0 -104 -226 -171 -154 -194 0 0 0 0 -1 -1 -1 0 0 0 -5 -25 -22
-2 -14 -1 -1 -1 -1 -19 0 0 0 0 0 0 0 0 0 0 0 0 0 0 0 0 0 0 0 0 -316 -247 -181 -167 -184 -234 -19 0 -18 0 0 -11 -14 -16 -25 -35 -49
-19 -7 -3 -1 -1 -2 0 0 0 0 0 0 0 0 0 0 0 0 0 0 0 0 0 0 0 0 0 -173 -424 -306 -238 -219 -167 -187 -214 -240 -237 -210 -132 -169 -1 0 0 -21
0 0 0 -16 -25 0 0 -2 0 0 0 0 0 0 0 0 0 0 0 0 0 0 0 0 0 0 0 0 -156 -493 -407 -333 -196 -156 -199 -202 -158 -115 -105 -105 0 0 0 0
-3 -1 0 0 0 0 0 -4 -10 -6 0 0 0 0 0 0 0 0 0 0 0 0 0 0 0 0 0 0 0 0 0 -291 -397 -271 -172 -130 -144 -107 -67 -115 0 0 0 0
-3 -1 0 0 0 0 0 -19 0 0 0 0 0 0 0 0 0 0 0 0 0 0 0 0 0 0 0 0 0 0 0 0 0 0 -307 -191 -110 -79 -106 -152 -12 0 0 0
0 0 0 0 0 0 0 0 0 0 0 0 0 0 0 0 0 0 0 0 0 0 0 0 0 0 0 0 0 0 0 0 0 0 0 0 -204 -132 -90 -103 -2 0 0 0
0 0 0 0 0 0 0 0 0 0 0 0 0 0 0 0 0 0 0 0 0 0 0 0 0 0 0 0 0 0 0 0 0 0 0 0 0 -1 0 0 0 0 0 0
0 0 0 0 0 0 0 0 0 0 0 0 0 0 0 0 0 0 0 0 0 0 0 0 0 0 0 0 0 0 0 0 0 0 0 0 -1 -1 0 0 0 0 0 0
0 0 0 0 0 0 0 0 -1 0 0 0 0 0 0 0 0 0 0 0 0 0 0 0 0 0 0 0 0 0 0 0 0 0 0 0 0 0 0 0 0 0 0 0
0 0 0 0 0 0 0 0 0 0 0 0 0 0 0 0 0 0 0 0 0 0 0 0 0 0 0 0 0 0 0 0 0 0 0 0 0 0 0 0 0 0 0 0
0 0 0 0 0 0 0 0 0 0 0 0 0 0 0 0 0 0 0 0 0 0 0 0 0 0 0 0 0 0 0 0 0 0 0 0 0 0 0 0 0 0 0 0
0 0 0 0 0 0 0 0 0 0 0 0 0 0 0 0 0 0 0 0 0 0 0 0 0 0 0 0 0 0 0 0 0 0 0 0 0 0 0 0 0 0 0 0
0 0 0 0 0 0 0 0 0 0 0 0 0 0 0 0 0 0 0 0 0 0 0 0 0 0 0 0 0 0 0 0 0 0 0 0 0 0 0 0 0 0 0 0
0 0 0 0 0 0 0 0 0 0 0 0 0 0 0 0 0 0 0 0 0 0 0 0 0 0 0 0 0 0 0 0 0 0 0 0 0 0 0 0 0 0 0 0
0 0 0 0 0 0 0 0 0 0 0 0 0 0 0 0 0 0 0 0 0 0 0 0 0 0 0 0 0 0 0 0 0 0 0 0 0 0 0 0 0 0 0 0
0 0 0 0 0 0 0 0 0 0 0 0 0 0 0 0 0 0 0 0 0 0 0 0 0 0 0 0 0 0 0 0 0 0 0 0 0 0 0 0 0 0 0 0
0 0 0 0 0 0 0 0 0 0 0 0 0 0 0 0 0 0 0 0 0 0 0 0 0 0 0 0 0 0 0 0 0 0 0 0 0 0 0 0 0 0 0 0
0 0 0 0 0 0 0 0 0 0 0 0 0 0 0 0 0 0 0 0 0 0 0 0 0 0 0 0 0 0 0 0 0 0 0 0 0 0 0 0 0 0 0 0
0 0 0 0 0 0 0 0 0 0 0 0 0 0 0 0 0 0 0 0 0 0 0 0 0 0 0 0 0 0 0 0 0 0 0 0 0 0 0 0 0 0 0 0
0 0 0 0 0 0 0 0 0 0 0 0 0 0 0 0 0 0 0 0 0 0 0 0 0 0 0 0 0 0 0 0 0 0 0 0 0 0 0 0 0 0 0 0
0 0 0 0 0 0 0 0 0 0 0 0 0 0 0 0 0 0 0 0 0 0 0 0 0 0 0 0 0 0 0 0 0 0 0 0 0 0 0 0 0 0 0 0
0 0 0 0 0 0 0 0 0 0 0 0 0 0 0 0 0 0 0 0 0 0 0 0 0 0 0 0 0 0 0 0 0 0 0 0 0 0 0 0 0 0 0 0
Wind_Speed
32 40 46 41 36 32 33 34 37 31 25 27 32 39 37 40 24 27 26 26 17 14 12 10 10 10 10 10 10 9 9 8 7 8 10 11 11 8 8 9 12 11 11 10
39 51 41 35 35 34 31 33 36 29 25 29 35 39 32 35 35 27 27 25 23 17 13 11 12 12 13 12 11 11 10 10 10 11 13 15 14 13 12 13 12 11 11 11
45 41 34 38 35 37 37 36 34 32 26 32 39 49 45 36 34 29 28 17 12 12 15 14 13 14 14 14 13 13 12 12 12 11 12 14 15 15 15 15 16 14 12 11
41 36 38 37 38 34 40 31 28 30 32 35 28 42 39 31 28 20 18 17 18 14 13 15 16 16 16 15 16 16 15 15 14 13 13 13 15 16 17 17 16 14 12 12
39 38 38 42 40 32 35 25 30 30 34 38 38 37 37 32 36 29 18 19 17 19 17 15 17 18 18 18 19 19 18 17 16 16 16 16 16 18 19 18 16 14 14 14
30 25 29 36 33 28 21 23 25 26 31 43 42 38 42 39 34 30 27 27 17 16 18 17 16 19 20 20 20 20 20 20 19 19 19 19 19 19 20 19 19 18 17 16
34 32 29 24 25 23 30 32 36 37 37 43 33 35 44 33 29 27 28 27 20 15 16 19 19 18 20 22 22 22 22 22 23 22 22 21 21 21 22 21 21 20 19 19
42 46 37 30 32 35 32 30 35 39 40 40 33 40 37 29 27 26 24 24 22 21 19 21 23 22 21 21 24 24 23 24 23 24 25 24 23 24 24 23 23 23 21 20
43 38 28 27 25 24 31 38 30 30 30 36 37 40 41 38 32 31 31 27 24 21 21 21 23 22 23 22 22 25 27 28 26 25 25 26 27 26 25 24 24 24 23 21
29 36 28 26 20 25 28 22 31 32 41 45 43 45 42 30 29 27 22 23 21 21 21 21 21 22 23 25 24 25 26 26 30 28 27 27 27 27 28 26 25 24 23 22
26 30 32 26 35 33 27 31 30 29 34 40 45 45 31 30 29 27 20 21 22 22 23 23 24 24 24 24 24 24 25 25 27 31 29 29 28 28 28 28 26 24 24 22
24 25 36 34 24 26 28 29 26 34 37 38 40 51 23 20 18 16 17 18 18 19 21 23 24 26 26 26 27 27 27 28 30 31 31 31 30 28 27 26 26 25 25 23
27 26 30 33 32 30 32 28 28 27 27 36 40 50 25 22 23 23 21 20 22 24 24 27 29 29 29 27 25 27 28 29 29 28 26 27 31 29 27 26 25 25 24 23
27 28 32 39 36 26 31 29 28 27 34 38 37 43 27 21 25 26 25 26 28 31 33 35 33 32 32 30 29 27 27 25 25 26 27 26 28 33 30 27 26 25 25 23
33 32 30 27 27 27 31 31 30 33 33 36 33 36 39 38 38 35 36 39 39 40 38 36 36 36 34 31 29 28 26 24 23 24 25 27 27 29 31 28 27 26 26 25
33 30 27 29 23 22 26 26 28 28 29 30 30 35 40 42 36 37 38 39 38 37 38 38 37 37 36 33 30 27 24 23 19 20 23 25 26 27 29 30 29 28 27 24
30 30 30 33 25 25 36 32 29 29 27 27 33 29 28 31 31 34 35 35 37 38 38 38 37 37 34 31 27 22 21 19 19 19 19 23 24 26 28 28 27 26 24 23
30 29 27 28 23 37 32 26 25 27 28 28 35 38 33 38 37 38 35 37 39 40 39 38 35 34 31 26 24 23 20 19 20 19 21 21 22 23 23 24 26 25 22 20
25 25 24 26 26 24 25 23 18 23 31 27 29 33 33 33 34 40 35 35 36 33 32 31 29 29 28 24 22 21 21 19 21 23 23 22 22 23 22 21 21 20 21 21
21 23 22 22 27 30 24 16 14 14 35 19 20 24 27 27 33 33 22 23 24 25 25 27 28 26 24 22 20 19 20 22 22 22 23 24 24 25 24 23 21 20 19 20
28 28 31 25 29 30 20 11 6 18 22 13 13 16 20 20 20 21 21 21 21 20 21 24 23 23 24 23 21 22 23 24 25 25 24 23 25 24 24 22 21 18 17 17
30 27 31 30 31 33 14 11 16 17 15 11 11 11 10 12 15 18 19 18 18 19 21 23 23 23 23 22 21 23 24 25 24 24 25 24 23 23 22 21 21 21 20 20
32 30 26 29 32 22 10 18 18 17 15 13 12 13 16 13 10 11 13 14 16 19 21 23 24 24 25 25 24 25 26 25 24 24 24 24 23 22 22 22 22 22 22 24
28 25 28 25 30 26 15 17 16 15 14 10 11 9 9 9 9 10 12 13 16 19 22 24 25 27 27 27 26 27 27 26 24 25 24 23 22 22 21 20 21 23 23 24
29 24 29 32 25 22 21 20 17 15 12 8 8 9 9 8 9 9 11 14 16 19 22 25 26 28 29 28 27 28 27 26 25 24 23 23 22 21 21 21 21 22 23 24
26 28 32 37 26 23 22 16 16 16 15 13 10 10 10 9 9 11 14 16 18 21 23 25 27 27 28 28 28 29 29 28 26 26 26 25 23 22 22 22 23 23 25 25
Wind_Direction
231 233 232 236 241 250 251 251 255 262 268 272 269 265 267 254 280 274 272 271 274 272 273 255 242 216 205 198 199 205 206 212 227 255 268 275 277 281 288 294 297 301 307 313
232 233 236 241 242 244 251 250 253 265 269 271 269 267 275 271 268 272 272 272 273 273 269 256 251 233 212 210 211 214 219 224 231 254 266 274 277 281 283 286 291 293 299 305
231 238 237 237 239 240 247 249 253 259 270 271 271 260 262 271 269 272 272 269 254 256 260 257 244 242 239 227 228 227 234 238 237 246 263 273 279 281 281 282 286 287 292 297
237 239 234 237 238 240 244 253 258 261 266 269 274 267 266 272 275 268 261 256 259 246 254 259 254 249 238 233 247 244 245 244 243 241 254 255 265 272 279 280 283 282 285 291
232 229 233 234 238 241 249 253 258 264 264 268 265 271 269 272 270 281 279 269 253 246 241 240 251 252 247 250 249 252 250 248 247 246 249 257 262 272 279 279 281 277 284 287
239 242 239 241 240 241 239 253 261 267 267 265 264 266 268 269 275 281 286 284 273 247 240 243 249 257 256 253 250 250 250 250 251 251 252 255 261 267 274 276 278 279 280 284
233 234 242 237 232 231 245 244 254 257 258 262 270 266 267 272 279 287 289 293 293 278 252 246 245 245 254 254 252 253 252 253 256 255 256 255 261 265 269 271 275 276 276 280
226 234 231 230 237 238 238 241 248 253 258 265 266 265 273 279 286 290 291 296 297 297 276 267 264 261 256 252 256 256 254 255 255 256 261 263 262 266 269 269 274 275 274 273
227 236 233 229 240 228 241 243 256 259 266 267 266 270 274 277 284 287 289 289 288 300 295 286 278 271 268 264 257 257 260 262 261 259 261 264 267 267 268 268 271 274 276 275
229 233 235 234 231 248 241 239 251 258 259 264 266 266 269 279 284 297 295 296 296 293 297 299 296 288 277 272 270 267 264 260 264 263 263 264 266 268 269 272 270 271 276 273
210 235 236 232 240 237 239 244 253 260 262 264 267 267 283 283 288 290 302 303 298 290 297 299 294 294 291 286 278 272 269 264 262 264 263 264 266 266 268 269 269 270 274 271
225 239 232 235 252 249 242 245 246 255 260 263 270 265 286 294 304 308 309 310 309 301 296 299 300 300 299 292 286 281 279 277 274 272 268 268 268 269 266 267 267 269 271 269
216 234 230 241 252 247 243 243 245 259 272 263 265 269 288 280 290 298 301 304 301 297 296 299 299 300 300 300 295 289 283 278 277 277 275 271 272 271 268 268 267 269 270 269
227 232 236 239 247 236 242 239 246 250 261 264 262 271 280 290 293 292 294 298 298 293 292 294 296 297 298 298 297 296 291 285 280 277 278 276 276 276 275 273 271 270 270 267
228 239 241 253 249 245 248 245 244 248 251 262 266 270 276 281 288 287 288 289 290 291 292 293 294 295 297 297 299 297 296 294 288 282 278 278 280 280 278 277 275 273 271 269
228 239 235 248 249 252 253 248 241 242 250 259 265 274 279 280 284 289 286 286 288 291 291 292 294 297 297 296 298 300 299 296 295 288 283 282 282 282 281 280 279 277 274 270
226 232 233 244 249 259 262 253 249 252 251 249 265 265 276 284 291 289 290 289 289 291 294 295 297 299 298 297 299 302 302 301 297 296 293 288 285 285 285 285 283 279 274 270
221 229 239 244 247 257 267 271 254 252 259 255 267 273 279 281 288 290 293 292 292 295 297 299 302 303 301 299 300 300 298 297 295 295 295 294 293 292 290 286 284 281 277 269
227 229 242 244 239 269 268 268 250 258 269 266 267 275 279 284 290 289 294 294 294 298 305 306 309 310 309 304 303 303 299 296 295 294 293 294 293 293 292 290 288 283 277 271
226 229 242 242 250 257 266 266 267 268 279 277 267 275 281 287 285 293 307 308 306 307 308 308 311 315 317 316 314 311 306 303 299 295 294 294 293 293 291 290 287 283 279 270
224 229 238 248 253 265 268 266 250 274 297 300 288 283 283 284 289 301 308 311 315 316 318 318 319 320 319 318 316 312 310 307 306 303 300 297 296 294 294 293 292 287 280 273
226 226 239 246 255 260 258 246 253 288 299 303 309 304 294 301 303 303 307 311 316 320 324 328 330 329 330 330 328 323 319 316 313 308 304 300 297 296 294 292 292 288 282 276
236 237 239 242 252 276 240 263 270 289 286 290 292 292 293 292 304 315 316 317 319 322 324 328 331 333 333 332 330 325 323 322 321 319 315 310 306 302 297 291 288 285 281 277
243 243 250 253 254 258 254 273 274 280 289 295 299 297 294 295 296 309 314 316 320 323 325 327 330 331 333 332 330 328 326 325 325 323 322 320 316 310 303 298 295 289 283 279
245 240 250 256 264 262 263 266 266 272 281 289 298 303 299 296 296 304 312 316 321 324 328 330 332 332 332 333 331 331 330 330 327 327 326 324 321 317 313 306 299 292 289 283
244 247 248 258 258 261 261 252 258 260 266 273 276 293 302 303 302 309 312 316 319 322 325 327 329 330 332 334 333 332 332 331 330 328 328 327 325 323 319 315 309 303 298 293